Hourly Weather Homushino

Today, 12 April, Monday

Time Temperature Precipitation Wind Pressure Humidity
00:00 +7°C° 0 mm 2 mps 756 mmHg 84%
01:00 +7°C° 0 mm 2 mps 756 mmHg 84%
02:00 +6°C° 0 mm 2 mps 756 mmHg 83%
03:00 +6°C° 0 mm 2 mps 756 mmHg 83%
04:00 +6°C° 0 mm 2 mps 756 mmHg 83%
05:00 +5°C° 0 mm 2 mps 756 mmHg 84%
06:00 +7°C° 0 mm 3 mps 756 mmHg 78%
07:00 +8°C° 0 mm 3 mps 756 mmHg 71%
08:00 +10°C° 0 mm 3 mps 756 mmHg 65%
09:00 +11°C° 0 mm 4 mps 755 mmHg 58%
10:00 +13°C° 0 mm 4 mps 755 mmHg 51%
11:00 +15°C° 0 mm 4 mps 755 mmHg 43%
12:00 +15°C° 0 mm 4 mps 754 mmHg 41%
13:00 +17°C° 0 mm 4 mps 754 mmHg 39%
14:00 +17°C° 0 mm 4 mps 753 mmHg 36%
15:00 +15°C° 0 mm 4 mps 753 mmHg 39%
16:00 +14°C° 0 mm 4 mps 753 mmHg 42%
17:00 +14°C° 0 mm 4 mps 752 mmHg 44%
18:00 +12°C° 0 mm 4 mps 752 mmHg 51%
19:00 +11°C° 0 mm 4 mps 752 mmHg 59%
20:00 +10°C° 0 mm 4 mps 752 mmHg 66%
21:00 +10°C° 0.5 mm 3 mps 752 mmHg 75%
22:00 +9°C° 0.5 mm 3 mps 752 mmHg 84%
23:00 +9°C° 0.5 mm 2 mps 752 mmHg 93%

Tomorrow, 13 April, Tuesday

Time Temperature Precipitation Wind Pressure Humidity
00:00 +9°C° 0.1 mm 2 mps 751 mmHg 94%
01:00 +9°C° 0.1 mm 2 mps 751 mmHg 95%
02:00 +9°C° 0.1 mm 1 mps 751 mmHg 96%
03:00 +9°C° 0 mm 1 mps 751 mmHg 96%
04:00 +9°C° 0 mm 1 mps 751 mmHg 97%
05:00 +9°C° 0 mm 1 mps 751 mmHg 97%
06:00 +10°C° 0 mm 1 mps 751 mmHg 94%
07:00 +10°C° 0 mm 1 mps 751 mmHg 92%
08:00 +11°C° 0 mm 1 mps 751 mmHg 89%
09:00 +12°C° 0 mm 1 mps 751 mmHg 84%
10:00 +13°C° 0 mm 1 mps 751 mmHg 79%
11:00 +14°C° 0 mm 2 mps 750 mmHg 74%
12:00 +14°C° 0 mm 2 mps 750 mmHg 75%
13:00 +14°C° 0 mm 2 mps 750 mmHg 77%
14:00 +14°C° 0 mm 2 mps 750 mmHg 78%
15:00 +13°C° 0.1 mm 1 mps 750 mmHg 82%
16:00 +13°C° 0.1 mm 1 mps 750 mmHg 87%
17:00 +12°C° 0.1 mm 1 mps 749 mmHg 91%
18:00 +12°C° 0.3 mm 1 mps 749 mmHg 92%
19:00 +11°C° 0.3 mm 1 mps 749 mmHg 94%
20:00 +11°C° 0.3 mm 1 mps 749 mmHg 95%
21:00 +11°C° 0.3 mm 1 mps 749 mmHg 96%
22:00 +11°C° 0.3 mm 1 mps 748 mmHg 96%
23:00 +11°C° 0.3 mm 1 mps 748 mmHg 96%

Day after tomorrow, 14 April, Wednesday

Time Temperature Precipitation Wind Pressure Humidity
00:00 +11°C° 0.1 mm 1 mps 748 mmHg 96%
01:00 +11°C° 0.1 mm 1 mps 748 mmHg 96%
02:00 +10°C° 0.1 mm 2 mps 747 mmHg 95%
03:00 +10°C° 0.1 mm 2 mps 747 mmHg 96%
04:00 +9°C° 0.1 mm 2 mps 747 mmHg 96%
05:00 +9°C° 0.1 mm 2 mps 747 mmHg 96%
06:00 +10°C° 0.1 mm 2 mps 747 mmHg 95%
07:00 +10°C° 0.1 mm 2 mps 747 mmHg 93%
08:00 +11°C° 0.1 mm 3 mps 747 mmHg 92%
09:00 +11°C° 0.2 mm 3 mps 747 mmHg 88%
10:00 +12°C° 0.2 mm 3 mps 747 mmHg 85%
11:00 +12°C° 0.2 mm 3 mps 747 mmHg 81%
12:00 +13°C° 0.3 mm 3 mps 747 mmHg 76%
13:00 +13°C° 0.3 mm 3 mps 747 mmHg 71%
14:00 +14°C° 0.3 mm 3 mps 747 mmHg 66%
15:00 +15°C° 0.2 mm 2 mps 747 mmHg 69%
16:00 +14°C° 0.2 mm 2 mps 747 mmHg 73%
17:00 +13°C° 0.2 mm 1 mps 747 mmHg 76%
18:00 +12°C° 0.1 mm 2 mps 747 mmHg 81%
19:00 +10°C° 0.1 mm 2 mps 747 mmHg 86%
20:00 +9°C° 0.1 mm 2 mps 748 mmHg 91%
21:00 +8°C° 0 mm 2 mps 748 mmHg 92%
22:00 +8°C° 0 mm 3 mps 748 mmHg 94%
23:00 +8°C° 0 mm 3 mps 747 mmHg 95%

15 April, Thursday

Time Temperature Precipitation Wind Pressure Humidity
00:00 +7°C° 0.1 mm 3 mps 747 mmHg 95%
01:00 +7°C° 0.1 mm 3 mps 747 mmHg 95%
02:00 +7°C° 0.1 mm 3 mps 747 mmHg 96%
03:00 +7°C° 0.3 mm 3 mps 747 mmHg 96%
04:00 +7°C° 0.3 mm 3 mps 747 mmHg 96%
05:00 +7°C° 0.3 mm 3 mps 747 mmHg 96%
06:00 +7°C° 1.2 mm 3 mps 747 mmHg 97%
07:00 +7°C° 1.2 mm 3 mps 747 mmHg 97%
08:00 +7°C° 1.2 mm 3 mps 747 mmHg 97%
09:00 +7°C° 0.5 mm 3 mps 747 mmHg 97%
10:00 +8°C° 0.5 mm 3 mps 747 mmHg 96%
11:00 +8°C° 0.5 mm 3 mps 747 mmHg 96%
12:00 +9°C° 0 mm 3 mps 747 mmHg 93%
13:00 +9°C° 0 mm 3 mps 747 mmHg 91%
14:00 +10°C° 0 mm 3 mps 747 mmHg 89%
15:00 +10°C° 0.1 mm 3 mps 747 mmHg 90%
16:00 +9°C° 0.1 mm 3 mps 747 mmHg 91%
17:00 +9°C° 0.1 mm 3 mps 747 mmHg 91%
18:00 +9°C° 0.1 mm 3 mps 747 mmHg 93%
19:00 +9°C° 0.1 mm 3 mps 747 mmHg 94%
20:00 +8°C° 0.1 mm 3 mps 747 mmHg 96%
21:00 +8°C° 0.1 mm 3 mps 747 mmHg 96%
22:00 +8°C° 0.1 mm 2 mps 747 mmHg 96%
23:00 +8°C° 0.1 mm 2 mps 747 mmHg 96%

16 April, Friday

Time Temperature Precipitation Wind Pressure Humidity
00:00 +8°C° 0 mm 2 mps 748 mmHg 96%
01:00 +8°C° 0 mm 3 mps 748 mmHg 96%
02:00 +8°C° 0 mm 3 mps 748 mmHg 95%
03:00 +8°C° 0 mm 3 mps 748 mmHg 95%
04:00 +8°C° 0 mm 3 mps 748 mmHg 95%
05:00 +7°C° 0 mm 3 mps 748 mmHg 94%
06:00 +6°C° 0 mm 4 mps 749 mmHg 92%
07:00 +7°C° 0 mm 4 mps 749 mmHg 90%
08:00 +7°C° 0 mm 4 mps 749 mmHg 87%
09:00 +7°C° 0 mm 4 mps 749 mmHg 85%
10:00 +8°C° 0 mm 4 mps 750 mmHg 83%
11:00 +9°C° 0 mm 5 mps 750 mmHg 81%
12:00 +10°C° 0 mm 5 mps 750 mmHg 77%
13:00 +10°C° 0 mm 5 mps 750 mmHg 73%
14:00 +12°C° 0 mm 5 mps 750 mmHg 69%
15:00 +12°C° 0 mm 5 mps 750 mmHg 71%
16:00 +10°C° 0 mm 5 mps 751 mmHg 72%
17:00 +10°C° 0 mm 5 mps 751 mmHg 74%
18:00 +9°C° 0 mm 5 mps 751 mmHg 75%
19:00 +9°C° 0 mm 5 mps 752 mmHg 75%
20:00 +8°C° 0 mm 5 mps 752 mmHg 75%
21:00 +7°C° 0 mm 5 mps 752 mmHg 74%
22:00 +7°C° 0 mm 5 mps 753 mmHg 73%
23:00 +6°C° 0 mm 5 mps 753 mmHg 72%

17 April, Saturday

Time Temperature Precipitation Wind Pressure Humidity
00:00 +5°C° 0 mm 4 mps 753 mmHg 71%
01:00 +4°C° 0 mm 4 mps 754 mmHg 69%
02:00 +4°C° 0 mm 4 mps 754 mmHg 68%
03:00 +3°C° 0 mm 4 mps 754 mmHg 69%
04:00 +3°C° 0 mm 4 mps 755 mmHg 70%
05:00 +1°C° 0 mm 4 mps 755 mmHg 72%
06:00 +3°C° 0 mm 4 mps 756 mmHg 68%
07:00 +3°C° 0 mm 5 mps 756 mmHg 64%
08:00 +5°C° 0 mm 5 mps 756 mmHg 61%
09:00 +7°C° 0 mm 5 mps 757 mmHg 55%
10:00 +8°C° 0 mm 5 mps 757 mmHg 49%
11:00 +9°C° 0 mm 5 mps 757 mmHg 43%
12:00 +10°C° 0 mm 5 mps 757 mmHg 41%
13:00 +12°C° 0 mm 5 mps 757 mmHg 39%
14:00 +12°C° 0 mm 5 mps 758 mmHg 37%
15:00 +12°C° 0 mm 4 mps 758 mmHg 38%
16:00 +12°C° 0 mm 4 mps 758 mmHg 40%
17:00 +12°C° 0 mm 4 mps 758 mmHg 41%
18:00 +10°C° 0 mm 3 mps 758 mmHg 48%
19:00 +8°C° 0 mm 3 mps 759 mmHg 55%
20:00 +6°C° 0 mm 2 mps 759 mmHg 61%
21:00 +5°C° 0 mm 2 mps 759 mmHg 63%
22:00 +5°C° 0 mm 2 mps 760 mmHg 64%
23:00 +4°C° 0 mm 2 mps 760 mmHg 66%
Show more